Simultaneous Nadir Overpasses (SNOs) Predictions

Prediction of SNOs between GOES-16 and METOP-C Satellite Orbit:

Table of predicted SNOs for the next 14.0 days since TLE Epoch: 2/8/2020
Index Date Time (GOES-16) GOES-16 Lat,Lon METOP-C Lat,Lon Distance(km) Time Diff (sec)
1 02/08/2020 14:39:54 -0.01, -75.21 0.50, -77.43 253.57 80
2 02/09/2020 14:21:52 -0.01, -75.21 -0.62, -72.43 317.36 80
3 02/11/2020 02:38:10 0.01, -75.21 -0.38, -77.01 205.20 80
4 02/12/2020 02:20:08 0.01, -75.22 0.74, -72.01 366.12 80
5 02/13/2020 14:36:16 -0.01, -75.25 0.27, -76.55 148.65 80
6 02/14/2020 14:18:15 -0.01, -75.26 -0.85, -71.55 422.99 80
7 02/16/2020 02:34:31 0.02, -75.26 -0.20, -76.12 98.52 80
8 02/17/2020 02:16:30 0.01, -75.28 0.92, -71.12 473.37 80
9 02/18/2020 14:32:39 -0.02, -75.31 0.05, -75.67 40.81 80
10 02/21/2020 02:30:54 0.03, -75.34 0.03, -75.24 11.38 80




NCC Satellite Simultaneous Nadir Overpasses (SNOs) Prediction Service
